Location: Observatory
(52.1446°N, 0.4624°W)
Time: 03:40:22
(UTC+01:00)

ISS - Pass Details

Date: 23 May 2019
Orbit: 408 x 418 km, 51.6° (Epoch: 18 June)

Event Time Altitude Azimuth Distance (km) Brightness Sun altitude
Rises 22:21:55 0° 259° (W) 2,352 0.4 -9.6°
Reaches altitude 10° 22:24:00 10° 259° (WSW) 1,493 -0.6 -9.8°
Maximum altitude 22:27:21 79° 173° (S) 431 -3.8 -10.1°
Drops below altitude 10° 22:30:43 10° 86° (E) 1,501 -1.2 -10.4°
Enters shadow 22:32:45 - 85° (E) 2,337 -0.3 -10.6°
